Moses Lake, WA
on Thursday, January 31, 2013

Thursday
Previous Day Next Day
Daily Summary
 ActualAverageRecord
Temperature
Mean Temperature °F 32°F  
Max Temperature 40°F 39°F 52°F (2005)
Min Temperature 27°F 26°F -2°F (1980)
Degree Days
Heating Degree Days 31 33  
Month to date heating degree days 1146 1087  
Since 1 July heating degree days 3354 3674  
Cooling Degree Days 0 0  
Month to date cooling degree days 0 0  
Year to date cooling degree days 0 0  
Moisture
Dew Point 30°F   
Average Humidity 86    
Maximum Humidity 92    
Minimum Humidity 79    
Precipitation
Precipitation 0.00 in 0.02 in 0.20 in (1986)
Month to date precipitation 0.28 1.14  
Year to date precipitation 0.28 1.14  
Wind
Wind Speed 2 mph   
Max Wind Speed 12 mph   
Max Gust Speed 15 mph   
Visibility 10 miles   
Events     

Key: T is trace of precipitation, MM is missing value
Source: NWS Daily Summary
Time(PST)TemperatureDew PointHumidity Pressure Visibility Wind DirectionWind SpeedGust SpeedPrecipitationEvents Conditions
12:52 AM 33.1°F 28.9°F 85% 30.27 in 10.0 miles Calm Calm - N/A   Overcast
1:52 AM 34.0°F 30.0°F 85% 30.27 in 10.0 miles Calm Calm - N/A   Overcast
2:52 AM 34.0°F 30.0°F 85% 30.28 in 10.0 miles NNW 5.8 mph - N/A   Overcast
3:52 AM 34.0°F 30.0°F 85% 30.27 in 10.0 miles Calm Calm - N/A   Overcast
4:52 AM 32.0°F 28.9°F 88% 30.29 in 10.0 miles North 5.8 mph - N/A   Clear
5:52 AM 30.9°F 28.0°F 89% 30.28 in 10.0 miles North 4.6 mph - N/A   Clear
6:52 AM 28.9°F 26.1°F 89% 30.29 in 10.0 miles Calm Calm - N/A   Clear
7:52 AM 30.9°F 28.0°F 89% 30.29 in 10.0 miles Calm Calm - N/A   Clear
8:52 AM 33.1°F 30.0°F 89% 30.30 in 10.0 miles Calm Calm - N/A   Clear
9:52 AM 34.0°F 30.9°F 89% 30.31 in 10.0 miles NW 3.5 mph - N/A   Clear
10:52 AM 36.0°F 32.0°F 86% 30.30 in 10.0 miles ENE 3.5 mph - N/A   Clear
11:52 AM 37.0°F 32.0°F 82% 30.28 in 10.0 miles North 5.8 mph - N/A   Partly Cloudy
12:52 PM 37.9°F 33.1°F 83% 30.27 in 10.0 miles North 4.6 mph - N/A   Overcast
1:52 PM 39.9°F 34.0°F 79% 30.26 in 10.0 miles Calm Calm - N/A   Mostly Cloudy
2:52 PM 37.9°F 33.1°F 83% 30.26 in 10.0 miles Calm Calm - N/A   Overcast
3:52 PM 39.0°F 34.0°F 82% 30.25 in 10.0 miles Calm Calm - N/A   Scattered Clouds
4:52 PM 37.0°F 33.1°F 86% 30.24 in 10.0 miles Calm Calm - N/A   Scattered Clouds
5:52 PM 34.0°F 30.9°F 89% 30.23 in 10.0 miles Calm Calm - N/A   Clear
6:52 PM 34.0°F 30.9°F 89% 30.24 in 8.0 miles North 10.4 mph - N/A   Clear
7:52 PM 32.0°F 30.0°F 92% 30.23 in 8.0 miles Calm Calm - N/A   Clear
8:52 PM 30.9°F 28.0°F 89% 30.23 in 9.0 miles WSW 4.6 mph - N/A   Clear
9:52 PM 28.9°F 26.1°F 89% 30.24 in 9.0 miles Calm Calm - N/A   Clear
10:52 PM 28.0°F 25.0°F 88% 30.24 in 10.0 miles Calm Calm - N/A   Clear
11:52 PM 27.0°F 24.1°F 89% 30.25 in 10.0 miles Calm Calm - N/A   Clear
Moon Phase
Jan. 31 Feb. 03 Feb. 10 Feb. 17 Feb. 25
Sunrise:07:23 AM (PST) Moon Rise:10:31 PM (PST)1/31
Sunset:04:58 PM (PST) Moon Set:09:02 AM (PST)1/31

Copyright © 2014 The Weather Underground, Inc.